Regional Weather Roundup
Issued by NWS Memphis, TN

Home | Current Version | Previous Version | Text Only | Print | Product List | Glossary On
Versions: 1 2 3 4 5 6 7 8 9 10 11 12 13 14 15 16 17 18 19 20 21 22 23 24 25 26 27 28 29 30 31 32 33 34 35 36 37 38 39 40 41 42 43 44 45 46 47 48 49 50
000
ASUS44 KMEG 300710
RWRMEG
MEMPHIS CWA HOURLY WEATHER ROUNDUP
NATIONAL WEATHER SERVICE MEMPHIS TN
200 AM CDT WED JUL 30 2014

...WEST TENNESSEE...

CITY           SKY/WX    TMP DP  RH WIND       PRES   REMARKS
MEMPHIS INTL   PTCLDY    65  56  72 CALM      30.09F
NWS MEMPHIS      N/A     60 N/A N/A MISG        N/A
JACKSON        CLEAR     57  55  93 CALM      30.10F
LEXINGTON      CLEAR     55  54  94 CALM      30.10S
SAVANNAH       CLEAR     55  55 100 CALM      30.11S
DYERSBURG      CLEAR     59  50  72 CALM      30.11F
UNION CITY     CLEAR     55  55 100 CALM      30.09F
PARIS            N/A     51  50  97 CALM      30.11F VSB 3/4


...EASTERN ARKANSAS...

CITY           SKY/WX    TMP DP  RH WIND       PRES   REMARKS
JONESBORO      CLEAR     61  59  93 CALM      30.09F
WEST MEMPHIS   CLEAR     62  62 100 CALM      30.08F
BATESVILLE     PTCLDY    66  59  77 SE3       30.09F
NEWPORT        CLEAR     67  62  84 E7        30.10F
WALNUT RIDGE   PTCLDY    66  57  72 CALM      30.08F
BLYTHEVILLE    CLEAR     63  57  81 CALM      30.10F
SEARCY         PTCLDY    64  63  97 CALM      30.10F
STUTTGART      PTCLDY    70  59  68 SE3       30.09F
PINE BLUFF     MOCLDY    67  63  87 CALM      30.09F
MONTICELLO     PTCLDY    66  60  81 CALM      30.09S


...NORTH MISSISSIPPI...

CITY           SKY/WX    TMP DP  RH WIND       PRES   REMARKS
TUPELO         PTCLDY    60  56  86 N5        30.09S
OLIVE BRANCH   CLEAR     63  63 100 CALM      30.10F
CLARKSDALE     CLEAR     63  61  94 CALM      30.10S
CORINTH        PTCLDY    57  55  94 CALM      30.10S
GRENADA        PTCLDY    57  55  94 CALM      30.10R
GREENWOOD      PTCLDY    60  58  92 CALM      30.09S
COLUMBUS       CLEAR     58  56  93 CALM      30.08F
STARKVILLE     FAIR      57  55  94 CALM      30.08F
GOLDEN TRIANGL CLEAR     57  54  88 N3        30.09S


...SOUTHEAST MISSOURI...

CITY           SKY/WX    TMP DP  RH WIND       PRES   REMARKS
WEST PLAINS    PTCLDY    64  58  80 CALM      30.11F
POPLAR BLUFF   CLEAR     60  56  86 CALM      30.09F
CAPE GIRARDEAU CLEAR     60  57  89 CALM      30.10S


...NORTHWEST ALABAMA...

CITY           SKY/WX    TMP DP  RH WIND       PRES   REMARKS
MUSCLE SHOALS  CLEAR     58  54  86 CALM      30.10F


...MIDDLE TENNESSEE...

CITY           SKY/WX    TMP DP  RH WIND       PRES   REMARKS
NASHVILLE      CLEAR     61  56  83 CALM      30.10S
CLARKSVILLE    CLEAR     58  54  86 CALM      30.10S
DICKSON        CLEAR     57  54  88 CALM      30.11S
COLUMBIA       CLEAR     57  55  94 CALM      30.10R
LEWISBURG      CLEAR     56  53  89 CALM      30.10S


...WESTERN KENTUCKY...

CITY           SKY/WX    TMP DP  RH WIND       PRES   REMARKS
PADUCAH        CLEAR     61  55  81 SW5       30.09F
FORT CAMPBELL  CLEAR     59  55  86 SW3       30.10S


...CENTRAL ARKANSAS...

CITY           SKY/WX    TMP DP  RH WIND       PRES   REMARKS
LITTLE ROCK    CLOUDY    70  61  73 CALM      30.08F


SKY/WX REPORTED AS FAIR MEANS FEW OR NO CLOUDS BELOW
12 THOUSAND FEET.



USA.gov is the U.S. government's official web portal to all federal, state and local government web resources and services.